Garrison, ND

8:19 AM CST on January 18, 2017 (GMT -0600)
Garrison

Weather History for KN60 - October, 2013

Change the Weather History Date:

Tuesday, October 15, 2013

  Actual Average Record
Temperature  
Mean Temperature 44 °F -  
Max Temperature 50 °F - 77 °F (2012)
Min Temperature 38 °F - 21 °F (2001)
Degree Days  
Heating Degree Days 21    
Month to date heating degree days 182  
Cooling Degree Days 0    
Month to date cooling degree days 0  
Year to date cooling degree days 373  
Moisture  
Dew Point 34 °F    
Average Humidity 76    
Maximum Humidity 100    
Minimum Humidity 52    
Precipitation  
Precipitation 0.01 in - 0.01 in (2013)
Month to date precipitation 3.04  
Year to date precipitation 28.60  
Sea Level Pressure  
Sea Level Pressure 30.15 in    
Wind  
Wind Speed 11 mph (NNW)    
Max Wind Speed 15 mph    
Max Gust Speed 27 mph    
T = Trace of Precipitation, MM = Missing Value Source: NWS Daily Summary

Daily Weather History Graph

Daily Weather History Graph

Search for Another Location

Airport or City:

Trip Planner

Search our weather history database for the weather conditions in past years. The results will help you decide how hot, cold, wet, or windy it might be!

Date:

Astronomy

Oct. 15, 2013 Rise Set
Actual Time 8:05 AM CDT 6:57 PM CDT
Civil Twilight 7:33 AM CDT 7:28 PM CDT
Nautical Twilight 6:58 AM CDT 8:03 PM CDT
Astronomical Twilight 6:22 AM CDT 8:39 PM CDT
Moon 5:14 PM CDT (10/15) 4:16 AM CDT (10/15)
Length of Visible Light 11h 54m
Length of Day
10h 52m
Waxing Gibbous, 88% of the Moon is Illuminated
Oct 15
Waxing Gibbous
Oct 18
Full
Oct 26
Last Quarter
Nov 3
New
Nov 9
First Quarter

Hourly Weather History & Observations

Time (CDT) Temp. Windchill Dew Point Humidity Pressure Visibility Wind Dir Wind Speed Gust Speed Precip Events Conditions
12:52 AM - - - N/A% 30.19 in - NNE 11.5 mph 24.2 mph 0.01 in   Unknown
1:52 AM - - - N/A% 30.18 in - NNE 15.0 mph 26.5 mph 0.01 in   Unknown
2:52 AM - - - N/A% 30.17 in - NNE 15.0 mph 26.5 mph N/A   Unknown
3:52 AM - - - N/A% 30.18 in - North 13.8 mph - N/A   Unknown
4:52 AM - - - N/A% 30.18 in - North 12.7 mph - N/A   Unknown
5:52 AM - - - N/A% 30.18 in - North 12.7 mph - N/A   Unknown
6:52 AM - - - N/A% 30.19 in - North 11.5 mph - N/A   Unknown
7:52 AM - - - N/A% 30.19 in - NNW 12.7 mph - N/A   Unknown
8:52 AM - - - N/A% 30.21 in - NNW 10.4 mph - N/A   Unknown
9:52 AM - - - N/A% 30.22 in - NNW 10.4 mph - N/A   Unknown
10:52 AM 37.9 °F 30.0 °F 37.0 °F 97% 30.22 in - NNW 12.7 mph - N/A   Unknown
11:52 AM 41.0 °F 35.2 °F 37.9 °F 89% 30.21 in - NNW 9.2 mph - N/A   Unknown
12:52 PM 43.0 °F 37.2 °F 37.0 °F 80% 30.20 in - NNW 10.4 mph - N/A   Unknown
1:52 PM 46.0 °F 40.6 °F 37.0 °F 71% 30.17 in - NNW 11.5 mph - N/A   Unknown
2:52 PM 48.0 °F - 34.0 °F 58% 30.15 in - NNW 13.8 mph - N/A   Unknown
3:52 PM 48.9 °F - 36.0 °F 61% 30.13 in - NNW 10.4 mph 18.4 mph N/A   Unknown
4:52 PM 50.0 °F - 33.1 °F 52% 30.12 in - NNW 11.5 mph - N/A   Unknown
5:52 PM 48.9 °F - 34.0 °F 56% 30.10 in - NNW 6.9 mph - N/A   Unknown
6:52 PM 43.0 °F 40.3 °F 33.1 °F 68% 30.09 in - WNW 4.6 mph - N/A   Unknown
7:52 PM 39.9 °F 35.1 °F 32.0 °F 73% 30.09 in - WNW 6.9 mph - N/A   Unknown
8:52 PM 39.9 °F 34.5 °F 30.9 °F 70% 30.07 in - WNW 8.1 mph - N/A   Unknown
9:52 PM 37.9 °F 32.1 °F 30.9 °F 76% 30.07 in - West 8.1 mph - N/A   Unknown
10:52 PM 36.0 °F 30.3 °F 30.9 °F 82% 30.11 in - West 6.9 mph - N/A   Unknown
11:52 PM 37.0 °F 31.6 °F 32.0 °F 82% 30.09 in - West 6.9 mph - N/A   Unknown